Stations météo

Publicité
Dalwhinnie, Grande-Bretagne (99005): Température de l'air & dewpoint: 13.11.2017 19:00:00 - 19.11.2017 19:00:00 (GMT)Dalwhinnie, Grande-Bretagne (99005): Quantités de précipitations: 13.11.2017 19:00:00 - 19.11.2017 19:00:00 (GMT)
Date & Time tt [°C] td [°C] rr [mm]
19.11.2017 19:00:00 1,2 0,3 0,0
19.11.2017 18:00:00 1,1 0,2 0,0
19.11.2017 17:00:00 1,0 0,0 0,0
19.11.2017 16:00:00 1,4 0,1 0,0
19.11.2017 15:00:00 2,1 0,2 0,0
19.11.2017 14:00:00 2,4 0,4 0,0
19.11.2017 13:00:00 1,9 0,6 0,2
19.11.2017 12:00:00 - - 0,0
19.11.2017 11:00:00 0,8 -0,5 0,0
19.11.2017 10:00:00 -0,4 -0,8 0,0
19.11.2017 09:00:00 -1,8 -2,2 0,0
19.11.2017 08:00:00 -1,4 -1,8 0,0
19.11.2017 07:00:00 -1,5 -1,9 0,0
19.11.2017 06:00:00 -1,6 -2,0 0,0
19.11.2017 05:00:00 -2,0 -2,6 0,0
19.11.2017 04:00:00 -1,1 -1,9 0,0
19.11.2017 03:00:00 1,1 -0,3 0,0
19.11.2017 02:00:00 1,9 0,3 0,0
19.11.2017 01:00:00 1,8 0,1 0,0
19.11.2017 00:00:00 2,2 0,2 0,0
18.11.2017 23:00:00 2,2 0,0 0,0
18.11.2017 22:00:00 2,5 -0,7 0,0
18.11.2017 21:00:00 2,6 -1,4 0,0
18.11.2017 20:00:00 2,9 -2,4 0,0
18.11.2017 19:00:00 2,9 -3,0 0,0
18.11.2017 18:00:00 3,1 -3,3 0,0
18.11.2017 17:00:00 2,8 -3,0 0,0
18.11.2017 16:00:00 2,9 -4,0 0,0
18.11.2017 15:00:00 3,6 -2,8 0,0
18.11.2017 14:00:00 3,9 -2,7 0,0
18.11.2017 13:00:00 3,3 -2,6 0,0
18.11.2017 12:00:00 3,3 -2,4 0,0
18.11.2017 11:00:00 3,4 -2,6 0,0
18.11.2017 10:00:00 2,6 -1,7 0,0
18.11.2017 09:00:00 0,6 -1,7 0,0
18.11.2017 08:00:00 0,7 -1,3 0,0
18.11.2017 07:00:00 1,6 -0,4 0,0
18.11.2017 06:00:00 1,6 -0,3 0,0
18.11.2017 05:00:00 2,2 -0,9 0,2
18.11.2017 04:00:00 1,4 0,2 0,8
18.11.2017 03:00:00 2,9 0,3 0,4
18.11.2017 02:00:00 3,1 1,1 0,2
18.11.2017 01:00:00 4,1 1,0 0,2
18.11.2017 00:00:00 3,9 2,3 -
17.11.2017 23:00:00 4,6 2,3 0,4
17.11.2017 22:00:00 4,4 2,5 0,8
17.11.2017 21:00:00 4,5 2,5 0,2
17.11.2017 20:00:00 4,6 2,3 0,6
17.11.2017 19:00:00 4,4 2,3 0,6
17.11.2017 18:00:00 4,6 2,2 0,2
17.11.2017 17:00:00 4,3 1,9 0,8
17.11.2017 16:00:00 4,8 2,1 0,0
17.11.2017 15:00:00 5,2 2,6 0,2
17.11.2017 14:00:00 4,9 2,2 0,0
17.11.2017 13:00:00 5,1 2,4 0,2
17.11.2017 12:00:00 5,5 2,5 0,0
17.11.2017 11:00:00 4,7 2,3 0,0
17.11.2017 10:00:00 4,5 2,2 0,0
17.11.2017 09:00:00 4,3 2,2 0,0
17.11.2017 08:00:00 3,9 2,0 0,6
17.11.2017 07:00:00 4,4 2,0 0,0
17.11.2017 06:00:00 4,6 1,6 0,2
17.11.2017 05:00:00 4,0 1,3 0,0
17.11.2017 04:00:00 4,2 1,1 0,0
17.11.2017 03:00:00 3,9 0,8 0,0
17.11.2017 02:00:00 3,9 0,8 -
17.11.2017 01:00:00 3,7 0,2 0,0
17.11.2017 00:00:00 3,7 -0,4 -
16.11.2017 23:00:00 3,0 0,2 0,2
16.11.2017 22:00:00 3,4 -0,2 0,0
16.11.2017 21:00:00 2,8 0,0 0,0
16.11.2017 20:00:00 3,2 -0,3 0,0
16.11.2017 19:00:00 2,6 -0,4 0,0
16.11.2017 18:00:00 3,5 -0,5 0,0
16.11.2017 17:00:00 3,4 -1,1 0,0
16.11.2017 16:00:00 3,2 -0,2 0,0
16.11.2017 15:00:00 4,0 -0,8 0,0
16.11.2017 14:00:00 4,6 -1,0 0,0
16.11.2017 13:00:00 4,7 -0,5 0,0
16.11.2017 12:00:00 4,4 -0,4 0,0
16.11.2017 11:00:00 4,2 0,5 0,0
16.11.2017 10:00:00 3,4 0,3 0,0
16.11.2017 09:00:00 3,5 0,1 0,4
16.11.2017 08:00:00 3,7 1,1 0,2
16.11.2017 07:00:00 4,6 2,7 1,0
16.11.2017 06:00:00 5,0 3,7 0,8
16.11.2017 05:00:00 5,6 4,2 4,6
16.11.2017 04:00:00 7,9 7,1 1,2
16.11.2017 03:00:00 8,0 6,8 0,0
16.11.2017 02:00:00 8,5 6,2 -
16.11.2017 01:00:00 8,4 6,2 0,0
16.11.2017 00:00:00 7,2 5,9 -
15.11.2017 23:00:00 7,0 5,5 0,0
15.11.2017 22:00:00 6,4 5,1 0,0
15.11.2017 21:00:00 6,4 4,6 0,0
15.11.2017 20:00:00 6,1 3,6 0,0
15.11.2017 19:00:00 6,2 3,4 0,0
15.11.2017 18:00:00 6,2 3,2 0,0
15.11.2017 17:00:00 6,2 3,2 0,0
15.11.2017 16:00:00 6,1 3,1 0,0
15.11.2017 15:00:00 5,9 3,2 -
15.11.2017 14:00:00 5,6 3,2 0,0
15.11.2017 13:00:00 5,7 3,4 0,0
15.11.2017 12:00:00 5,5 3,4 0,0
15.11.2017 11:00:00 5,1 3,4 0,0
15.11.2017 10:00:00 3,6 3,1 0,0
15.11.2017 09:00:00 1,9 1,0 0,0
15.11.2017 08:00:00 1,6 0,8 0,0
15.11.2017 07:00:00 2,5 1,6 0,0
15.11.2017 06:00:00 2,9 1,7 0,0
15.11.2017 05:00:00 3,2 2,8 0,0
15.11.2017 04:00:00 3,6 3,0 0,0
15.11.2017 03:00:00 - - 0,4
15.11.2017 02:00:00 4,5 2,8 0,2
15.11.2017 01:00:00 5,2 2,9 0,0
15.11.2017 00:00:00 5,8 3,5 0,2
14.11.2017 23:00:00 5,3 3,1 0,0
14.11.2017 22:00:00 5,3 2,2 0,0
14.11.2017 21:00:00 5,8 2,7 0,0
14.11.2017 20:00:00 5,3 2,8 0,0
14.11.2017 19:00:00 5,3 2,9 0,2
14.11.2017 18:00:00 5,5 3,5 0,0
14.11.2017 17:00:00 5,6 2,8 0,0
14.11.2017 16:00:00 5,9 3,2 0,0
14.11.2017 15:00:00 6,3 3,2 0,0
14.11.2017 14:00:00 7,0 2,0 0,0
14.11.2017 13:00:00 6,8 2,7 0,0
14.11.2017 12:00:00 - - 0,0
14.11.2017 11:00:00 6,5 4,0 0,0
14.11.2017 10:00:00 6,4 3,5 0,0
14.11.2017 09:00:00 5,8 3,1 0,0
14.11.2017 08:00:00 5,2 3,9 0,0
14.11.2017 07:00:00 5,2 3,6 0,0
14.11.2017 06:00:00 6,3 3,3 0,0
14.11.2017 05:00:00 6,4 4,6 0,0
14.11.2017 04:00:00 5,9 4,4 0,0
14.11.2017 03:00:00 5,9 4,1 0,0
14.11.2017 02:00:00 7,0 5,4 0,2
14.11.2017 01:00:00 6,5 5,7 0,8
14.11.2017 00:00:00 7,1 5,9 1,2
13.11.2017 23:00:00 8,2 7,8 0,2
13.11.2017 22:00:00 6,9 6,4 0,4
13.11.2017 21:00:00 6,3 5,6 0,0
13.11.2017 20:00:00 6,1 5,2 0,0
13.11.2017 19:00:00 5,5 4,5 0,0

tt = Température de l'air
td = dewpoint
rr = Quantités de précipitations

stations d'obs. à proximité